Flag for Russia Weather past 2 weeks in Saint-Petersburg, Russia

Now
34 °F

Light snow. Mostly cloudy.


Feels Like: 27 °F
Forecast: 31 / 38 °F
Wind: 8 mph from South

Location: St. Petersburg

Current Time: Jan 30, 2015 at 2:23:17 PM

Latest Report: Jan 30, 2015 at 2:00 PM


Visibility: 5 mi

Pressure: 29.39 "Hg

Humidity: 93%

Dew point: 32 °F

Location of Saint-PetersburgLocation

Historic Weather in Saint-Petersburg — Graph

°F

Saint-Petersburg temperature yesterday

Maximum temperature yesterday: 32 °F (at 4:30 PM)
Minimum temperature yesterday: 28 °F (at 12:00 AM)
Average temperature yesterday: 30 °F

Past Weeks' High & Low Weather Summary

 TemperatureHumidityPressure
High37 °F (Jan 16, 11:00 PM)100% (Jan 16, 12:00 PM)30.54 "Hg (Jan 16, 12:00 PM)
Low0 °F (Jan 21, 7:30 AM)67% (Jan 20, 4:00 PM)29.33 "Hg (Jan 29, 2:30 PM)
Average25 °F89%29.96 "Hg
* Reported Jan 15 1:00 PM — Jan 30 1:00 PM, Saint-Petersburg, Weather by CustomWeather, © 2014

Note: Actual official high and low records may vary slightly from our data, if they occured in-between our weather recording intervals... More about our weather records

Advertising

Saint-Petersburg weather history for previous 24 hours

 ConditionsComfort  
Time TempWeatherWind HumidityBarometerVisibility
1:00 PM
Jan 30
34 °FCloudy.8 mph87%29.39 "HgN/A
12:30 PM34 °FCloudy.10 mph87%29.39 "HgN/A
12:00 PM34 °FCloudy.10 mph87%29.36 "HgN/A
11:30 AM34 °FMostly cloudy.6 mph87%29.36 "HgN/A
11:00 AM32 °FMostly cloudy.6 mph93%29.36 "HgN/A
10:30 AM32 °FLight snow. Cloudy.8 mph93%29.36 "Hg5 mi
10:00 AM32 °FLight snow. Overcast.6 mph93%29.36 "Hg4 mi
9:30 AM32 °FLight snow. Overcast.6 mph93%29.36 "Hg5 mi
9:00 AM32 °FLight snow. Overcast.6 mph93%29.33 "HgN/A
8:30 AM32 °FMostly cloudy.8 mph93%29.33 "HgN/A
8:00 AM32 °FOvercast.8 mph93%29.33 "HgN/A
7:30 AM32 °FOvercast.6 mph93%29.33 "HgN/A
7:00 AM32 °FLight snow. Overcast.8 mph93%29.33 "Hg5 mi
6:30 AM32 °FLight snow. Overcast.8 mph93%29.33 "Hg4 mi
6:00 AM30 °FLight snow. Mostly cloudy.8 mph100%29.33 "Hg3 mi
5:30 AM30 °FLight snow. Mostly cloudy.6 mph100%29.33 "Hg4 mi
5:00 AM30 °FLight snow. Mostly cloudy.8 mph100%29.33 "Hg2 mi
4:30 AM30 °FLight snow. Mostly cloudy.8 mph100%29.33 "Hg3 mi
4:00 AM30 °FLight snow. Mostly cloudy.8 mph100%29.33 "Hg2 mi
3:30 AM30 °FLight snow. Overcast.8 mph100%29.33 "Hg2 mi
3:00 AM30 °FLight snow. Mostly cloudy.8 mph93%29.33 "Hg3 mi
2:30 AM32 °FLight snow. Overcast.8 mph87%29.33 "Hg2 mi
2:00 AM32 °FLight snow. Overcast.8 mph87%29.33 "HgN/A
1:30 AM32 °FLight snow. Overcast.8 mph87%29.33 "Hg3 mi
1:00 AM32 °FOvercast.8 mph80%29.33 "HgN/A
12:30 AM32 °FOvercast.10 mph80%29.33 "HgN/A
12:00 AM32 °FOvercast.13 mph80%29.33 "HgN/A
11:30 PM
Jan 29
32 °FOvercast.13 mph80%29.33 "HgN/A
11:00 PM32 °FOvercast.13 mph80%29.33 "HgN/A
10:30 PM32 °FOvercast.13 mph80%29.33 "HgN/A
10:00 PM32 °FOvercast.10 mph80%29.33 "HgN/A
9:30 PM32 °FOvercast.10 mph80%29.33 "HgN/A
9:00 PM32 °FOvercast.8 mph80%29.33 "HgN/A
8:30 PM32 °FOvercast.8 mph80%29.33 "HgN/A
8:00 PM32 °FOvercast.10 mph80%29.33 "HgN/A
7:30 PM32 °FOvercast.10 mph80%29.33 "HgN/A
7:00 PM32 °FOvercast.8 mph80%29.33 "HgN/A
6:30 PM30 °FOvercast.10 mph80%29.33 "HgN/A
6:00 PM30 °FOvercast.13 mph80%29.33 "HgN/A
5:30 PM30 °FOvercast.10 mph80%29.33 "HgN/A
5:00 PM30 °FOvercast.8 mph80%29.33 "HgN/A
4:30 PM32 °FOvercast.10 mph80%29.33 "HgN/A
4:00 PM30 °FOvercast.10 mph86%29.36 "HgN/A
3:30 PM30 °FOvercast.10 mph86%29.33 "HgN/A
3:00 PM30 °FOvercast.10 mph86%29.33 "HgN/A
2:30 PM30 °FOvercast.8 mph86%29.33 "HgN/A
2:00 PM30 °FOvercast.10 mph86%29.36 "HgN/A
Weather by CustomWeather, © 2014

See weather overviewHow to use our weather pages